Wind_Speed
41 41 42 43 44 44 45 45 46 47 47 48 48 49 49 49 50 50 51 51 51 52 51 51 52 52 52 51 51 51 50 50 49 48 47 47 47 46 45 44 43 41 40
41 42 43 44 45 46 46 47 47 48 49 49 50 50 50 51 51 52 52 52 51 51 51 51 51 51 51 51 50 50 49 49 48 47 46 46 46 45 43 42 41 39 38
43 43 44 45 46 47 47 48 49 49 50 50 51 51 51 51 51 51 51 51 50 51 51 51 50 50 50 49 49 48 48 47 46 45 44 44 43 42 41 40 38 37 36
44 45 46 47 47 47 48 48 49 49 50 50 50 50 49 49 49 48 48 48 48 48 48 48 48 48 48 48 47 46 46 45 44 44 42 42 41 40 39 38 37 36 34
46 46 47 47 48 48 48 48 48 49 49 48 48 47 47 47 46 46 46 46 46 46 47 47 48 48 47 46 46 45 45 44 43 42 41 40 39 38 37 37 35 34 33
46 46 47 47 47 47 46 46 47 47 46 46 46 46 46 46 46 46 46 45 45 46 46 46 45 45 45 45 44 44 43 42 41 40 39 38 37 36 35 35 33 32 31
47 47 47 47 47 47 47 46 46 46 46 46 45 45 45 45 45 45 45 44 45 45 44 44 44 43 43 42 42 41 41 40 39 38 37 36 35 34 33 33 32 31 30
47 47 47 47 47 47 47 47 47 46 46 45 45 45 45 45 45 45 45 45 45 45 44 44 43 42 41 41 40 39 38 37 36 35 34 34 33 32 32 31 30 30 29
47 48 48 48 48 48 47 47 47 47 46 45 45 45 45 45 45 45 45 45 45 44 44 43 42 41 40 39 37 36 35 34 34 33 32 32 31 30 30 30 29 29 28
48 48 48 48 48 48 48 48 47 47 46 46 46 46 46 45 45 45 45 44 44 43 43 42 41 40 38 37 36 34 33 32 32 31 30 30 29 29 29 29 28 28 28
48 48 48 48 48 48 48 47 47 46 46 46 46 46 45 45 45 45 44 43 43 42 41 40 38 37 35 34 34 32 31 31 30 29 29 29 28 28 28 28 28 27 27
47 47 47 48 48 48 47 47 46 46 46 46 45 45 44 44 44 43 43 42 41 40 39 37 36 34 34 33 32 32 31 30 29 29 28 28 27 27 28 27 27 27 27
46 47 47 47 47 47 46 46 46 46 45 45 44 44 44 43 43 42 41 40 39 38 37 36 35 33 33 32 32 31 30 30 29 29 28 27 27 27 27 27 28 28 28
46 46 46 46 46 46 46 45 45 45 44 44 44 43 42 42 41 40 39 39 38 37 36 34 34 33 32 31 31 30 30 29 29 28 28 28 27 28 28 28 29 29 29
46 45 45 45 45 45 45 45 45 44 43 43 43 43 42 41 41 40 39 38 37 36 35 34 33 33 32 32 31 30 30 29 30 29 29 29 29 30 30 30 30 31 31
45 45 44 44 44 44 44 44 44 44 44 43 42 42 42 41 40 40 39 38 37 35 34 33 33 33 32 32 31 31 30 30 30 30 30 30 31 31 31 31 32 32 33
45 45 44 44 44 44 44 44 44 44 43 42 42 41 40 40 40 39 38 37 36 35 33 33 33 33 32 32 32 32 31 31 31 31 32 32 32 33 33 33 34 34 34
45 46 46 45 44 44 44 44 44 43 42 42 41 41 40 39 39 38 37 36 34 34 33 33 33 33 33 33 33 32 32 32 32 32 32 33 33 34 34 35 35 35 35
45 44 45 45 45 44 44 44 44 43 43 42 41 40 40 39 38 38 37 35 34 33 33 33 33 33 33 33 32 32 32 32 32 32 32 33 34 34 35 36 37 37 37
44 44 45 45 45 44 44 44 44 44 44 43 41 41 40 39 38 37 36 35 34 34 33 33 34 34 33 33 33 33 33 33 33 33 34 34 35 36 36 37 37 37 37
43 44 44 44 44 44 44 44 44 44 43 42 41 40 40 39 38 37 36 36 35 34 34 34 34 34 34 34 34 34 35 35 35 35 35 36 37 37 37 37 37 37 37
42 42 42 43 43 44 44 44 43 43 42 41 40 39 39 39 38 38 37 37 36 36 35 35 34 34 34 34 34 35 35 35 36 36 37 37 37 37 37 37 37 37 37
40 40 40 40 41 41 42 42 42 41 41 40 40 39 39 38 38 38 37 37 37 36 35 35 34 34 34 34 34 35 35 35 36 37 37 37 37 37 37 36 36 37 37
39 39 39 39 40 40 40 40 40 39 38 38 39 39 38 38 37 37 36 36 36 35 35 35 34 34 34 34 34 34 34 35 35 36 36 36 36 36 36 36 36 37 37
38 38 38 38 38 39 39 39 39 39 38 37 37 37 37 37 37 36 36 35 35 35 34 34 34 34 34 34 34 34 34 35 35 35 35 35 35 35 35 35 36 37 37
37 37 37 37 37 38 38 38 38 38 37 36 35 35 35 36 36 35 35 35 34 34 34 33 33 33 33 34 34 34 34 34 34 34 34 34 34 34 35 35 36 37 37
Wind_Direction
254 255 257 258 260 261 263 264 265 266 268 269 271 273 274 275 277 278 280 281 281 282 283 284 285 285 286 287 287 287 287 287 287 287 286 285 285 285 285 285 285 284 283
256 257 259 260 261 263 264 265 265 267 268 270 271 273 275 276 278 280 281 281 282 283 283 284 285 285 286 287 287 287 287 287 287 287 286 286 285 285 285 284 284 284 283
257 258 259 261 262 263 264 265 267 268 269 271 272 274 275 277 278 279 280 281 282 283 284 285 285 286 287 287 286 286 286 286 286 286 286 286 286 285 285 284 283 283 282
258 259 260 261 262 263 265 266 267 268 270 271 273 274 276 277 278 279 280 281 282 283 284 285 285 285 286 286 286 286 286 286 286 286 286 286 285 285 284 283 282 281 280
259 260 260 261 262 264 265 266 267 269 270 270 272 273 275 276 278 279 281 282 282 283 284 285 284 284 285 285 285 285 285 285 285 285 285 285 284 284 283 282 281 279 278
260 261 261 261 262 263 264 265 266 267 268 270 271 273 274 276 277 278 280 281 282 283 284 284 284 284 285 285 285 285 285 284 284 284 284 284 283 283 282 280 278 277 276
260 260 261 262 262 263 263 264 265 267 268 269 271 272 274 275 276 278 279 280 282 283 284 284 285 285 285 285 285 285 284 284 283 283 284 283 283 281 280 278 276 275 274
260 260 261 261 262 263 264 265 265 266 267 269 270 272 273 274 276 277 279 280 281 282 283 284 284 285 285 285 285 285 284 283 283 283 283 283 282 280 279 278 275 273 272
261 261 261 261 262 263 263 264 265 266 267 268 270 271 273 274 276 277 279 280 281 281 282 282 283 283 283 283 283 283 283 282 282 282 282 281 280 279 278 276 274 273 272
263 262 262 262 262 263 263 264 264 265 266 268 269 271 272 274 275 277 278 279 280 281 281 281 281 282 282 281 281 282 282 282 282 281 281 280 279 278 277 275 274 273 272
264 264 264 263 263 263 264 264 264 265 266 267 269 270 272 273 274 276 277 278 279 280 280 280 280 280 279 280 280 280 281 281 281 281 280 279 278 277 276 274 274 273 272
264 264 264 263 263 263 263 263 263 264 265 267 268 270 271 272 274 275 276 277 277 277 277 277 277 278 278 277 278 278 279 280 279 279 278 277 277 276 275 274 274 273 273
265 264 264 263 262 262 262 262 262 263 263 264 266 268 269 270 271 272 273 275 275 275 275 275 275 275 276 276 276 276 276 277 276 276 276 276 276 275 275 275 274 273 274
265 264 263 262 262 261 261 261 262 262 263 263 264 266 267 268 269 270 271 272 272 272 273 273 272 273 274 274 275 275 275 275 275 275 275 275 275 274 274 275 274 275 275
265 265 264 263 262 261 260 259 260 261 261 262 263 263 264 266 267 268 269 270 270 270 270 270 270 271 272 272 272 273 273 272 273 273 274 274 274 275 275 275 275 276 276
265 264 263 262 260 259 258 258 259 259 260 261 262 262 263 264 265 266 267 268 268 267 267 268 269 269 269 269 270 272 272 272 273 273 273 274 275 276 276 275 276 276 276
265 264 262 261 259 258 258 257 257 258 258 259 260 261 261 262 263 264 265 265 265 265 265 266 267 268 268 268 269 270 271 272 273 273 274 274 275 276 275 276 276 277 277
266 264 262 261 259 258 257 257 256 257 257 258 259 259 260 261 261 262 262 262 262 262 264 265 266 267 267 268 269 269 270 271 272 273 274 275 276 276 277 277 277 277 277
266 264 262 260 258 256 256 255 255 255 255 257 258 258 258 259 259 259 259 259 260 261 262 263 265 266 267 268 268 269 270 272 273 274 275 276 277 278 278 278 278 278 278
265 263 261 259 257 256 255 255 254 254 254 255 256 256 257 257 257 257 257 257 258 260 261 262 263 265 266 267 267 269 270 271 273 274 275 276 277 278 279 279 279 279 279
266 263 260 258 257 256 254 254 254 254 254 254 254 254 255 256 256 256 256 257 258 259 260 261 262 264 265 266 268 269 271 272 274 274 275 277 278 279 279 279 279 279 279
267 264 261 258 256 255 254 253 252 252 252 252 251 252 253 254 254 255 256 257 258 259 260 261 262 264 266 268 269 270 271 273 274 276 276 277 278 279 279 280 279 279 280
269 264 260 257 255 253 252 251 250 249 250 250 250 250 251 252 254 255 256 257 257 258 259 260 262 264 266 268 269 271 272 273 275 276 277 278 278 279 279 278 279 279 280
268 264 259 255 253 251 250 249 248 247 247 248 249 249 249 250 252 253 254 255 257 258 259 260 262 263 265 267 269 271 273 275 276 277 278 278 278 278 279 279 279 280 280
268 263 258 254 251 249 248 247 246 245 245 246 247 248 248 249 251 252 253 255 256 258 259 260 262 264 266 267 269 271 274 275 276 277 278 278 278 279 279 279 280 280 281
269 263 257 253 250 248 246 245 244 244 244 245 245 246 248 249 250 251 253 254 255 257 258 260 262 264 266 268 269 272 274 275 275 276 277 278 279 280 280 280 280 281 282
Height
5702 5704 5706 5708 5710 5712 5713 5715 5716 5717 5718 5718 5718 5719 5719 5718 5718 5718 5717 5716 5715 5714 5712 5711 5710 5708 5706 5704 5702 5700 5698 5696 5695 5694 5692 5689 5687 5685 5683 5682 5680 5679 5678
5693 5695 5697 5699 5700 5701 5703 5704 5705 5705 5706 5706 5707 5707 5707 5707 5706 5706 5705 5704 5703 5701 5700 5699 5697 5695 5694 5692 5690 5688 5686 5684 5682 5681 5679 5677 5676 5674 5672 5671 5669 5668 5667
5684 5685 5687 5688 5689 5691 5692 5693 5693 5694 5694 5695 5695 5695 5695 5695 5694 5693 5693 5692 5691 5690 5688 5687 5685 5683 5681 5680 5678 5676 5674 5672 5670 5669 5667 5666 5664 5662 5661 5660 5659 5658 5657
5674 5675 5676 5677 5678 5680 5680 5681 5682 5682 5682 5683 5683 5683 5683 5682 5682 5681 5681 5680 5679 5677 5676 5674 5673 5671 5670 5668 5666 5664 5662 5660 5659 5657 5656 5654 5653 5651 5650 5649 5648 5648 5647
5663 5664 5665 5666 5667 5668 5669 5669 5670 5670 5671 5671 5671 5672 5671 5671 5671 5670 5669 5668 5667 5666 5664 5663 5661 5660 5658 5656 5654 5653 5651 5649 5647 5646 5645 5643 5642 5641 5640 5639 5639 5638 5637
5652 5653 5654 5655 5656 5656 5657 5658 5658 5659 5659 5660 5660 5660 5660 5659 5659 5658 5658 5657 5656 5654 5653 5651 5650 5648 5646 5645 5643 5641 5639 5638 5636 5635 5634 5633 5632 5631 5630 5629 5629 5629 5629
5640 5641 5642 5643 5644 5644 5645 5646 5647 5647 5648 5648 5648 5648 5648 5648 5648 5647 5646 5645 5644 5643 5642 5640 5638 5637 5635 5633 5631 5630 5628 5627 5626 5625 5624 5623 5622 5621 5621 5620 5620 5620 5620
5629 5629 5630 5631 5632 5633 5633 5634 5635 5635 5636 5636 5637 5637 5637 5636 5636 5636 5635 5634 5633 5632 5630 5629 5627 5626 5624 5623 5621 5619 5618 5617 5616 5615 5614 5613 5612 5612 5611 5611 5611 5611 5611
5616 5617 5618 5618 5619 5620 5621 5621 5622 5623 5623 5624 5624 5625 5625 5624 5624 5624 5623 5622 5621 5620 5619 5617 5616 5615 5613 5612 5611 5609 5608 5607 5606 5605 5604 5604 5603 5603 5602 5603 5603 5603 5603
5603 5604 5604 5605 5606 5607 5608 5608 5609 5610 5611 5611 5612 5612 5612 5612 5612 5612 5611 5610 5609 5608 5607 5606 5605 5604 5603 5602 5601 5600 5599 5598 5597 5596 5595 5595 5594 5594 5594 5594 5595 5595 5595
5590 5590 5591 5591 5592 5593 5594 5595 5596 5597 5598 5599 5599 5599 5600 5600 5599 5599 5599 5598 5598 5597 5596 5595 5594 5593 5593 5592 5591 5590 5590 5589 5588 5587 5587 5587 5586 5586 5586 5586 5587 5587 5587
5576 5576 5577 5577 5578 5579 5580 5581 5583 5584 5585 5586 5586 5587 5587 5587 5587 5587 5587 5587 5586 5586 5585 5584 5584 5583 5583 5582 5582 5581 5581 5580 5579 5579 5579 5579 5578 5578 5578 5578 5579 5579 5579
5562 5562 5562 5563 5564 5565 5566 5568 5569 5570 5572 5572 5573 5574 5575 5575 5575 5575 5575 5575 5575 5575 5574 5574 5574 5573 5573 5573 5572 5572 5572 5571 5571 5571 5571 5571 5570 5570 5571 5571 5571 5571 5571
5547 5547 5548 5549 5550 5551 5552 5554 5555 5557 5558 5559 5561 5561 5562 5563 5563 5563 5564 5564 5564 5564 5564 5563 5563 5563 5563 5563 5563 5563 5563 5563 5562 5562 5562 5562 5562 5562 5562 5562 5562 5562 5562
5532 5533 5534 5534 5536 5537 5538 5540 5542 5543 5544 5546 5548 5549 5550 5551 5551 5552 5552 5552 5552 5553 5553 5553 5553 5554 5554 5554 5554 5554 5554 5554 5554 5554 5554 5554 5554 5554 5553 5553 5553 5553 5553
5517 5518 5519 5520 5521 5523 5524 5526 5527 5529 5531 5533 5534 5536 5537 5538 5539 5540 5540 5541 5541 5542 5543 5543 5543 5543 5544 5544 5544 5545 5545 5545 5545 5545 5545 5544 5544 5544 5544 5544 5543 5543 5542
5501 5502 5503 5505 5506 5508 5510 5512 5514 5516 5517 5519 5521 5522 5524 5525 5526 5527 5528 5529 5530 5531 5532 5533 5533 5533 5534 5534 5535 5535 5535 5535 5535 5535 5535 5535 5535 5534 5534 5534 5533 5532 5532
5485 5486 5487 5489 5491 5493 5495 5497 5499 5502 5504 5506 5508 5509 5511 5513 5514 5515 5516 5518 5519 5520 5521 5522 5522 5523 5524 5524 5524 5525 5525 5525 5525 5525 5525 5525 5524 5524 5523 5523 5522 5521 5520
5469 5470 5471 5473 5475 5477 5480 5482 5485 5487 5490 5493 5495 5497 5498 5500 5502 5503 5505 5507 5508 5509 5510 5511 5512 5512 5513 5513 5514 5514 5514 5515 5515 5515 5514 5514 5513 5513 5512 5511 5510 5509 5509
5452 5453 5455 5457 5459 5462 5464 5467 5470 5473 5476 5479 5481 5483 5485 5487 5489 5491 5493 5495 5497 5498 5499 5500 5501 5501 5502 5503 5503 5504 5504 5504 5504 5504 5503 5503 5502 5501 5500 5499 5498 5497 5496
5436 5437 5438 5440 5443 5446 5449 5452 5455 5458 5461 5464 5467 5470 5472 5475 5477 5479 5481 5483 5485 5486 5488 5489 5489 5490 5491 5492 5492 5492 5493 5493 5492 5492 5492 5491 5490 5489 5488 5487 5486 5485 5484
5420 5421 5422 5424 5427 5430 5433 5436 5440 5443 5447 5450 5454 5456 5459 5462 5465 5467 5469 5471 5473 5474 5476 5477 5478 5479 5480 5480 5481 5481 5481 5481 5481 5480 5480 5479 5478 5477 5476 5475 5474 5473 5472
5404 5405 5407 5409 5411 5415 5418 5422 5425 5429 5433 5437 5440 5443 5446 5449 5452 5455 5457 5459 5461 5462 5464 5465 5467 5467 5468 5468 5469 5469 5469 5469 5469 5468 5467 5467 5466 5465 5464 5463 5462 5461 5460
5389 5390 5392 5394 5397 5400 5404 5408 5412 5416 5419 5423 5427 5430 5434 5437 5440 5442 5445 5447 5449 5450 5452 5454 5455 5456 5457 5457 5457 5458 5458 5457 5457 5456 5455 5454 5454 5453 5452 5451 5450 5449 5447
5375 5376 5377 5380 5383 5387 5390 5394 5399 5403 5407 5411 5414 5418 5421 5424 5427 5430 5433 5435 5437 5439 5440 5442 5443 5444 5445 5446 5446 5446 5446 5446 5445 5444 5443 5443 5442 5441 5440 5439 5438 5436 5435
5361 5362 5364 5366 5370 5373 5377 5382 5386 5390 5394 5398 5402 5406 5409 5413 5416 5418 5421 5423 5425 5427 5429 5430 5432 5433 5433 5434 5434 5435 5434 5434 5433 5432 5432 5431 5430 5429 5428 5427 5426 5424 5423